Main page
METAR-TAF:

METAR-TAF

Airports :

Bushehr Airport

Bushehr, Iran

latitude: 28-59N, longitude: 050-50E, elevation: 19 m

Current weather observation

The report was made 28 minutes ago, at 07:30 UTC
Wind 14 kt from the North
Temperature 14°C
Humidity 47%
Pressure 1024 hPa
Visibility 10 km or more
no clouds below 1500 m and no cumulonimbus

METAR: OIBB 200730Z 36014KT CAVOK 14/03 Q1023 A3025

Time: 11:28 (07:58 UTC)


TAF: missing

Weather observations and forecasts of more than 4000 airports (METAR and TAF reports).

The available stations are represented by yellow and red dots on the map.

Hover mouse over dot to see the name of the station.

Then click to see weather observations and forecasts.

To change the map : click on the green buttons with a black cross to zoom in, on the green button with a dash to zoom out, or on the green arrows for adjacent maps.


METAR-TAF: